Location: Central Falls
(41.8900°N, 71.3929°W)
Time: 07:30:52
(UTC+00:00)

Tiros 1 despin weight - Pass Details

Date: 12 December 2023
Orbit: 581 x 624 km, 48.2° (Epoch: 29 February)

Event Time Altitude Azimuth Distance (km) Brightness Sun altitude
Rises 22:01:11 0° 276° (W) 2,817 ? -8.5°
Reaches altitude 10° 22:03:37 10° 285° (WNW) 1,910 ? -9.0°
Maximum altitude 22:07:41 37° 353° (N) 918 ? -9.7°
Enters shadow 22:11:05 14° 58° (ENE) 1,673 ? -10.2°
Drops below altitude 10° 22:11:43 10° 62° (ENE) 1,898 - -10.4°
Sets 22:14:08 0° 70° (ENE) 2,796 - -10.8°
